Ludington, MI

4:33 PM EST on February 08, 2016 (GMT -0500)
Mason County

Weather History for KLDM - October, 2013

Change the Weather History Date:

Sunday, October 20, 2013

  Actual Average Record
Temperature  
Mean Temperature 49 °F -  
Max Temperature 55 °F 56 °F 77 °F (1971)
Min Temperature 43 °F 38 °F 26 °F (1952)
Degree Days  
Heating Degree Days 16    
Moisture  
Dew Point 39 °F    
Average Humidity 70    
Maximum Humidity 89    
Minimum Humidity 55    
Precipitation  
Precipitation 0.03 in - - ()
Sea Level Pressure  
Sea Level Pressure 29.78 in    
Wind  
Wind Speed 7 mph (WSW)    
Max Wind Speed 16 mph    
Max Gust Speed 23 mph    
Visibility 10 miles    
Events Rain    
Averages and records for this station are not official NWS values.
T = Trace of Precipitation, MM = Missing Value Source: NWS Daily Summary

Daily Weather History Graph

Daily Weather History Graph

Search for Another Location

Airport or City:

Trip Planner

Search our weather history database for the weather conditions in past years. The results will help you decide how hot, cold, wet, or windy it might be!

Date:

Astronomy

Oct. 20, 2013 Rise Set
Actual Time 8:06 AM EDT 6:53 PM EDT
Civil Twilight 7:37 AM EDT 7:22 PM EDT
Nautical Twilight 7:03 AM EDT 7:56 PM EDT
Astronomical Twilight 6:30 AM EDT 8:29 PM EDT
Moon 7:57 PM EDT (10/20) 9:47 AM EDT (10/20)
Length of Visible Light 11h 45m
Length of Day
10h 46m
Full, 97% of the Moon is Illuminated
Oct 20
Full
Oct 26
Last Quarter
Nov 3
New
Nov 10
First Quarter
Nov 17
Full

Hourly Weather History & Observations

Time (EDT) Temp. Windchill Dew Point Humidity Pressure Visibility Wind Dir Wind Speed Gust Speed Precip Events Conditions
12:15 AM 50.7 °F - 40.3 °F 67% 29.75 in 10.0 mi West 11.5 mph 16.1 mph N/A   Mostly Cloudy
12:35 AM 48.4 °F - 37.6 °F 66% 29.75 in 10.0 mi West 6.9 mph - N/A   Overcast
12:55 AM 50.9 °F - 40.1 °F 67% 29.75 in 10.0 mi West 11.5 mph 16.1 mph N/A   Overcast
1:15 AM 50.9 °F - 39.6 °F 65% 29.75 in 10.0 mi WNW 9.2 mph - N/A   Overcast
1:35 AM 48.9 °F - 39.6 °F 70% 29.75 in 10.0 mi West 5.8 mph 16.1 mph N/A Rain Light Rain
1:54 AM 48.4 °F - 39.4 °F 71% 29.75 in 10.0 mi WNW 6.9 mph - N/A   Mostly Cloudy
2:15 AM 48.4 °F - 39.4 °F 71% 29.74 in 10.0 mi West 8.1 mph - N/A   Mostly Cloudy
2:35 AM 48.4 °F - 39.7 °F 72% 29.74 in 10.0 mi WNW 3.5 mph - N/A   Overcast
2:54 AM 48.4 °F - 38.5 °F 69% 29.75 in 10.0 mi WNW 6.9 mph - N/A   Overcast
3:15 AM 48.4 °F - 39.2 °F 71% 29.74 in 10.0 mi NW 5.8 mph - N/A   Overcast
3:35 AM 48.4 °F - 39.2 °F 71% 29.75 in 10.0 mi NW 5.8 mph - N/A   Overcast
3:55 AM 48.4 °F - 39.4 °F 71% 29.75 in 10.0 mi NW 3.5 mph - N/A   Overcast
4:15 AM 48.4 °F - 39.4 °F 71% 29.75 in 10.0 mi NW 4.6 mph - N/A   Overcast
4:35 AM 48.4 °F - 38.7 °F 69% 29.75 in 10.0 mi WNW 6.9 mph - N/A   Overcast
4:55 AM 45.9 °F 42.3 °F 36.1 °F 69% 29.76 in 10.0 mi NW 6.9 mph - N/A   Overcast
5:15 AM 45.9 °F 44.6 °F 36.5 °F 70% 29.76 in 10.0 mi NW 3.5 mph - N/A   Mostly Cloudy
5:35 AM 46.2 °F 44.1 °F 36.0 °F 67% 29.76 in 10.0 mi NW 4.6 mph - N/A   Overcast
5:55 AM 45.9 °F 43.6 °F 36.7 °F 70% 29.77 in 10.0 mi NW 4.6 mph - N/A   Overcast
6:15 AM 45.9 °F 41.7 °F 36.7 °F 70% 29.78 in 10.0 mi WNW 8.1 mph - N/A   Overcast
6:34 AM 45.9 °F 43.6 °F 36.7 °F 70% 29.78 in 10.0 mi NW 4.6 mph - N/A   Overcast
6:55 AM 45.5 °F 43.2 °F 36.5 °F 71% 29.79 in 10.0 mi WNW 4.6 mph - N/A   Mostly Cloudy
7:15 AM 44.6 °F 41.4 °F 36.0 °F 72% 29.79 in 10.0 mi WNW 5.8 mph - N/A   Mostly Cloudy
7:34 AM 43.9 °F 42.3 °F 35.6 °F 73% 29.79 in 10.0 mi WNW 3.5 mph - N/A   Mostly Cloudy
7:55 AM 43.7 °F - 35.4 °F 73% 29.80 in 10.0 mi Calm Calm - N/A   Scattered Clouds
8:15 AM 43.5 °F 40.9 °F 35.2 °F 73% 29.80 in 10.0 mi WNW 4.6 mph - N/A   Clear
8:35 AM 44.6 °F 42.2 °F 36.0 °F 72% 29.81 in 10.0 mi West 4.6 mph - N/A   Mostly Cloudy
8:55 AM 44.6 °F 43.1 °F 35.1 °F 69% 29.82 in 10.0 mi West 3.5 mph - N/A   Scattered Clouds
9:15 AM 45.9 °F 43.6 °F 35.6 °F 67% 29.83 in 10.0 mi West 4.6 mph - N/A   Clear
9:35 AM 47.8 °F - 36.5 °F 65% 29.83 in 10.0 mi West 4.6 mph - N/A   Scattered Clouds
9:55 AM 48.4 °F - 37.4 °F 66% 29.84 in 10.0 mi West 6.9 mph - N/A   Mostly Cloudy
10:15 AM 48.4 °F - 37.0 °F 65% 29.84 in 10.0 mi WSW 5.8 mph - N/A   Mostly Cloudy
10:35 AM 48.4 °F - 36.5 °F 64% 29.85 in 10.0 mi WSW 8.1 mph - N/A   Scattered Clouds
10:55 AM 48.4 °F - 36.5 °F 64% 29.85 in 10.0 mi WSW 9.2 mph - N/A   Scattered Clouds
11:15 AM 50.9 °F - 38.8 °F 63% 29.85 in 10.0 mi WSW 9.2 mph - N/A   Scattered Clouds
11:35 AM 50.9 °F - 38.3 °F 62% 29.85 in 10.0 mi WNW 8.1 mph - N/A   Scattered Clouds
11:55 AM 50.9 °F - 37.9 °F 61% 29.86 in 10.0 mi WSW 9.2 mph - N/A   Clear
12:15 PM 50.9 °F - 37.6 °F 60% 29.86 in 10.0 mi WNW 9.2 mph - N/A   Clear
12:35 PM 50.9 °F - 37.8 °F 61% 29.86 in 10.0 mi WSW 5.8 mph - N/A   Scattered Clouds
12:55 PM 50.9 °F - 37.9 °F 61% 29.85 in 10.0 mi SW 5.8 mph - N/A   Scattered Clouds
1:15 PM 50.9 °F - 37.4 °F 60% 29.85 in 10.0 mi SW 8.1 mph - N/A   Scattered Clouds
1:35 PM 50.9 °F - 36.5 °F 58% 29.85 in 10.0 mi SW 6.9 mph - N/A   Scattered Clouds
1:55 PM 50.9 °F - 36.3 °F 57% 29.84 in 10.0 mi SSW 9.2 mph - N/A   Scattered Clouds
2:14 PM 51.6 °F - 37.4 °F 58% 29.84 in 10.0 mi SSW 6.9 mph - N/A   Scattered Clouds
2:35 PM 50.9 °F - 37.2 °F 59% 29.82 in 10.0 mi SW 9.2 mph - N/A   Mostly Cloudy
2:55 PM 51.1 °F - 37.2 °F 59% 29.81 in 10.0 mi SSW 11.5 mph - N/A   Scattered Clouds
3:14 PM 51.6 °F - 36.0 °F 55% 29.81 in 10.0 mi SSW 10.4 mph 18.4 mph N/A   Scattered Clouds
3:35 PM 50.9 °F - 36.3 °F 57% 29.81 in 10.0 mi SW 9.2 mph - N/A   Mostly Cloudy
3:55 PM 50.9 °F - 36.1 °F 57% 29.80 in 10.0 mi SSW 8.1 mph - N/A   Overcast
4:14 PM 50.9 °F - 36.5 °F 58% 29.80 in 10.0 mi South 10.4 mph - N/A   Overcast
4:35 PM 50.9 °F - 36.1 °F 57% 29.79 in 10.0 mi South 8.1 mph - N/A   Overcast
4:55 PM 50.9 °F - 36.7 °F 58% 29.78 in 10.0 mi South 5.8 mph - N/A   Overcast
5:14 PM 50.9 °F - 36.7 °F 58% 29.77 in 10.0 mi SSE 8.1 mph - N/A   Overcast
5:35 PM 50.9 °F - 40.1 °F 67% 29.77 in 10.0 mi SSE 4.6 mph - N/A Rain Light Rain
5:55 PM 50.9 °F - 42.8 °F 74% 29.77 in 10.0 mi SSE 5.8 mph - N/A   Drizzle
6:14 PM 49.1 °F - 42.3 °F 77% 29.76 in 10.0 mi SE 5.8 mph - N/A Rain Light Rain
6:35 PM 48.4 °F - 42.3 °F 79% 29.76 in 10.0 mi SE 4.6 mph - N/A Rain Light Rain
6:55 PM 48.4 °F - 43.0 °F 82% 29.75 in 10.0 mi ESE 4.6 mph - N/A Rain Light Rain
7:15 PM 48.4 °F - 43.0 °F 82% 29.74 in 10.0 mi SE 5.8 mph - N/A   Light Drizzle
7:35 PM 48.4 °F - 43.5 °F 83% 29.74 in 10.0 mi SE 6.9 mph - N/A Rain Light Rain
7:55 PM 48.4 °F - 43.5 °F 83% 29.74 in 10.0 mi SSE 4.6 mph - N/A Rain Rain
8:15 PM 48.4 °F - 43.7 °F 84% 29.74 in 10.0 mi Calm Calm - N/A   Drizzle
8:35 PM 47.7 °F - 43.7 °F 86% 29.73 in 10.0 mi East 4.6 mph - N/A Rain Rain
8:55 PM 47.3 °F - 43.3 °F 86% 29.72 in 10.0 mi ESE 3.5 mph - N/A Rain Light Rain
9:15 PM 48.4 °F - 44.2 °F 86% 29.71 in 10.0 mi SE 5.8 mph - 0.01 in Rain Light Rain
9:35 PM 48.4 °F - 44.6 °F 87% 29.70 in 10.0 mi SSE 6.9 mph - 0.01 in Rain Light Rain
9:55 PM 50.9 °F - 46.9 °F 86% 29.70 in 3.0 mi South 10.4 mph - 0.01 in   Overcast
10:15 PM 50.9 °F - 47.3 °F 87% 29.70 in 10.0 mi South 8.1 mph - N/A Rain Light Rain
10:35 PM 50.9 °F - 47.7 °F 89% 29.70 in 10.0 mi South 4.6 mph - 0.01 in Rain Light Rain
10:55 PM 53.6 °F - 48.9 °F 84% 29.69 in 10.0 mi WSW 13.8 mph 19.6 mph 0.01 in   Overcast
11:15 PM 55.9 °F - 50.4 °F 82% 29.69 in 10.0 mi WSW 13.8 mph 20.7 mph N/A   Overcast
11:35 PM 55.9 °F - 49.5 °F 79% 29.69 in 10.0 mi WSW 16.1 mph 23.0 mph N/A   Overcast
11:55 PM 55.9 °F - 48.0 °F 75% 29.70 in 10.0 mi West 16.1 mph 23.0 mph 0.01 in   Mostly Cloudy